CW9560 Weather Reports


time (UTC)temp
F
wind
direction
speed
knots
gust
knots
rain 1hr
in
rain 24hr
in
rain mn
in
humidity
%
barometer
mb
20190221173008 53 138 1.7 2.6 0.00 0.02 0.00 79 1021.4
20190221172507 53 138 1.7 2.6 0.00 0.02 0.00 79 1021.4
20190221172008 53 138 0.9 5.2 0.00 0.02 0.00 78 1021.4
20190221171508 54 153 1.7 5.2 0.00 0.03 0.00 78 1021.3
20190221171008 54 167 2.6 6.1 0.00 0.03 0.00 78 1021.1
20190221170509 54 190 2.6 7.8 0.00 0.03 0.00 77 1021.1
20190221170007 54 194 2.6 7.8 0.00 0.03 0.00 77 1021.0
20190221165508 55 205 4.3 10.4 0.00 0.03 0.00 77 1020.9
20190221165008 55 216 5.2 10.4 0.00 0.03 0.00 76 1020.9
20190221164508 55 210 5.2 10.4 0.00 0.03 0.00 76 1020.9
20190221164009 55 212 3.5 10.4 0.00 0.03 0.00 76 1020.9
20190221163508 56 207 4.3 10.4 0.00 0.03 0.00 76 1021.0
20190221163008 56 226 4.3 10.4 0.00 0.03 0.00 76 1020.7
20190221162508 56 206 5.2 10.4 0.00 0.03 0.00 76 1020.5
20190221162008 56 215 5.2 10.4 0.00 0.03 0.00 76 1020.5
20190221161508 56 241 3.5 10.4 0.00 0.03 0.00 76 1020.5
20190221161008 56 232 4.3 10.4 0.00 0.03 0.00 76 1020.5
20190221160507 56 218 5.2 10.4 0.00 0.03 0.00 76 1020.5
20190221160008 56 227 3.5 10.4 0.00 0.03 0.00 75 1020.4
20190221155507 57 221 5.2 10.4 0.00 0.03 0.00 76 1020.4
20190221155007 57 225 2.6 7.8 0.00 0.03 0.00 76 1020.3
20190221154507 58 228 2.6 7.0 0.00 0.03 0.00 75 1020.3
20190221154008 58 217 4.3 7.0 0.00 0.03 0.00 74 1020.3
20190221153508 59 240 3.5 7.0 0.00 0.03 0.00 73 1020.3
20190221153007 59 229 3.5 6.1 0.00 0.03 0.00 73 1020.2
20190221152508 59 234 3.5 6.1 0.00 0.03 0.00 75 1020.2
20190221152008 58 299 2.6 7.0 0.00 0.03 0.00 76 1020.1
20190221151507 57 279 2.6 7.8 0.00 0.03 0.00 76 1020.1
20190221151008 56 262 4.3 7.8 0.00 0.03 0.00 78 1020.0
20190221150507 56 236 3.5 8.7 0.00 0.03 0.00 77 1020.1
20190221150008 55 231 5.2 8.7 0.00 0.03 0.00 77 1020.0
20190221145508 55 240 4.3 7.0 0.00 0.03 0.00 77 1019.9
20190221145008 55 269 4.3 7.8 0.00 0.03 0.00 78 1019.9
20190221144509 55 237 3.5 8.7 0.00 0.03 0.00 78 1020.0
20190221144008 55 229 4.3 8.7 0.00 0.03 0.00 78 1020.0
20190221143508 55 239 4.3 8.7 0.00 0.03 0.00 78 1019.9
20190221143008 55 263 4.3 10.4 0.00 0.03 0.00 78 1019.9
20190221142507 55 230 6.1 12.2 0.00 0.03 0.00 78 1019.9
20190221142008 55 235 6.1 15.6 0.00 0.03 0.00 78 1019.8
20190221141508 55 233 6.1 15.6 0.00 0.03 0.00 78 1019.7
20190221141008 55 236 7.0 15.6 0.00 0.03 0.00 78 1019.7
20190221140508 56 227 10.4 13.9 0.00 0.03 0.00 77 1019.6
20190221140009 55 234 5.2 14.8 0.00 0.03 0.00 78 1019.5
20190221135508 55 241 6.1 14.8 0.00 0.03 0.00 78 1019.5
20190221135008 55 235 7.8 13.0 0.00 0.03 0.00 78 1019.4
20190221134508 55 229 6.1 13.0 0.00 0.03 0.00 78 1019.4
20190221134008 55 237 7.8 13.0 0.00 0.03 0.00 78 1019.4
20190221133508 55 229 7.0 12.2 0.00 0.03 0.00 78 1019.4
20190221133008 55 249 5.2 10.4 0.00 0.03 0.00 78 1019.4
20190221132507 55 266 4.3 13.9 0.00 0.03 0.00 78 1019.3
20190221132009 55 229 4.3 13.9 0.00 0.03 0.00 78 1019.3
20190221131508 55 257 4.3 12.2 0.00 0.03 0.00 79 1019.3
20190221131008 55 247 5.2 12.2 0.00 0.03 0.00 79 1019.4
20190221130508 55 237 6.1 14.8 0.00 0.03 0.00 79 1019.3
20190221130008 55 230 7.8 14.8 0.00 0.03 0.00 79 1019.3
20190221125507 55 234 7.8 17.4 0.00 0.03 0.00 78 1019.3
20190221125007 55 250 10.4 17.4 0.00 0.03 0.00 78 1019.1
20190221124508 55 233 8.7 14.8 0.00 0.03 0.00 78 1019.0
20190221124008 55 234 7.8 12.2 0.00 0.03 0.00 79 1019.0
20190221123508 55 238 8.7 13.0 0.00 0.03 0.00 79 1018.9
20190221123008 55 252 6.1 13.0 0.00 0.03 0.00 79 1018.8
20190221122508 55 263 5.2 10.4 0.00 0.03 0.00 79 1018.6
20190221122008 55 236 4.3 10.4 0.00 0.03 0.00 79 1018.6
20190221121508 55 253 5.2 11.3 0.00 0.03 0.00 79 1018.5
20190221121009 55 241 5.2 11.3 0.00 0.03 0.00 79 1018.5
20190221120507 55 238 4.3 13.9 0.00 0.03 0.00 79 1018.4
20190221120008 55 246 5.2 13.9 0.00 0.03 0.00 79 1018.3
20190221115507 55 257 6.1 12.2 0.00 0.03 0.00 79 1018.2
20190221115008 55 268 4.3 12.2 0.00 0.03 0.00 79 1018.1
20190221114508 55 248 0.9 2.6 0.00 0.03 0.00 79 1018.1
20190221114008 55 247 1.7 5.2 0.00 0.03 0.00 79 1018.2
20190221113508 54 214 2.6 8.7 0.00 0.03 0.00 79 1018.2
20190221113008 54 213 4.3 8.7 0.00 0.03 0.00 79 1018.2
20190221112507 54 223 2.6 7.8 0.00 0.03 0.00 79 1018.2
20190221112008 54 242 2.6 7.8 0.00 0.03 0.00 79 1018.1
20190221111507 54 273 4.3 7.8 0.00 0.03 0.00 79 1018.0
20190221111008 54 240 5.2 7.8 0.00 0.03 0.00 79 1018.0
20190221110508 54 241 3.5 10.4 0.00 0.03 0.00 79 1018.0
20190221110008 54 245 4.3 10.4 0.00 0.03 0.00 79 1017.9
20190221105507 54 230 6.1 10.4 0.00 0.03 0.00 79 1017.8
20190221105007 54 240 7.8 10.4 0.00 0.03 0.00 79 1017.8
20190221104508 54 228 5.2 11.3 0.00 0.03 0.00 78 1017.7
20190221104008 54 231 7.8 12.2 0.00 0.03 0.00 78 1017.5
20190221103508 54 222 4.3 14.8 0.00 0.03 0.00 78 1017.5
20190221103007 54 245 8.7 14.8 0.00 0.03 0.00 78 1017.4
20190221102507 54 228 7.0 13.9 0.00 0.03 0.00 78 1017.3
20190221102007 54 230 6.1 12.2 0.00 0.03 0.00 78 1017.2
20190221101507 54 231 7.0 12.2 0.00 0.03 0.00 78 1017.0
20190221101007 54 222 4.3 12.2 0.00 0.03 0.00 78 1016.9
20190221100507 54 223 6.1 13.9 0.00 0.03 0.00 78 1016.9
20190221100008 54 238 7.8 13.9 0.00 0.03 0.00 77 1017.0
20190221095508 54 234 6.1 13.0 0.00 0.03 0.00 77 1017.0
20190221095009 53 230 7.8 13.0 0.00 0.03 0.00 77 1017.0
20190221094507 53 231 2.6 8.7 0.00 0.03 0.00 77 1016.9
20190221094008 53 227 4.3 8.7 0.00 0.03 0.00 77 1016.8
20190221093507 53 215 3.5 7.0 0.00 0.03 0.00 77 1016.8
20190221093008 53 242 1.7 7.0 0.00 0.03 0.00 77 1016.7
20190221092508 53 211 1.7 2.6 0.00 0.03 0.00 77 1016.7
20190221092008 53 245 0.0 2.6 0.00 0.03 0.00 77 1016.6
20190221091508 53 244 1.7 2.6 0.00 0.03 0.00 77 1016.5
20190221091008 52 239 0.9 2.6 0.00 0.04 0.00 77 1016.5
20190221090508 53 254 0.9 2.6 0.00 0.04 0.00 77 1016.4
20190221090008 53 241 0.9 2.6 0.00 0.04 0.00 77 1016.4
20190221085508 53 240 1.7 7.8 0.00 0.04 0.00 77 1016.3
20190221085007 53 234 2.6 7.8 0.00 0.04 0.00 77 1016.1
20190221084508 53 242 2.6 6.1 0.00 0.04 0.00 77 1016.1
20190221084009 52 233 2.6 6.1 0.00 0.04 0.00 77 1016.1
20190221083507 52 207 1.7 5.2 0.00 0.04 0.00 77 1015.8
20190221083008 52 211 2.6 7.0 0.00 0.05 0.00 77 1015.7
20190221082508 52 218 1.7 10.4 0.00 0.05 0.00 76 1015.6
20190221082008 52 219 4.3 10.4 0.00 0.05 0.00 76 1015.6
20190221081508 52 231 3.5 10.4 0.00 0.05 0.00 76 1015.6
20190221081008 52 227 5.2 10.4 0.00 0.05 0.00 76 1015.4
20190221080508 51 225 1.7 4.3 0.00 0.05 0.00 76 1015.3
20190221080007 51 256 0.9 2.6 0.00 0.05 0.00 76 1015.3
20190221075508 51 329 0.0 0.0 0.00 0.05 0.00 76 1015.3
20190221075008 51 329 0.0 0.0 0.00 0.05 0.00 76 1015.1
20190221074507 51 329 0.0 0.0 0.00 0.05 0.00 76 1015.0
20190221074007 51 329 0.0 2.6 0.00 0.05 0.00 76 1014.9
20190221073508 51 329 0.9 2.6 0.00 0.05 0.00 76 1014.8
20190221073008 51 329 0.0 0.0 0.00 0.05 0.00 76 1014.6
20190221072507 51 329 0.0 0.0 0.00 0.05 0.00 76 1014.5
20190221072007 51 329 0.0 2.6 0.00 0.05 0.00 76 1014.5
20190221071508 51 329 0.0 2.6 0.00 0.05 0.00 76 1014.3
20190221071007 51 248 0.9 2.6 0.00 0.06 0.00 76 1014.3
20190221070507 51 349 0.0 2.6 0.00 0.06 0.00 76 1014.3
20190221070008 51 0 0.9 2.6 0.00 0.06 0.00 76 1014.2
20190221065507 51 0 0.9 2.6 0.00 0.06 0.00 76 1014.1
20190221065008 50 16 0.0 2.6 0.00 0.07 0.00 76 1014.1
20190221064508 50 18 1.7 2.6 0.00 0.07 0.00 76 1014.0
20190221064008 50 15 1.7 2.6 0.00 0.07 0.00 76 1013.9
20190221063508 50 205 0.0 0.0 0.00 0.07 0.00 76 1013.9
20190221063008 50 205 0.0 1.7 0.00 0.07 0.00 76 1013.9
20190221062507 51 205 0.0 2.6 0.00 0.07 0.00 76 1013.8
20190221062008 50 205 0.9 2.6 0.00 0.07 0.00 76 1013.7
20190221061508 50 83 0.0 2.6 0.00 0.07 0.00 76 1013.5
20190221061008 50 83 0.9 2.6 0.00 0.07 0.00 76 1013.5
20190221060507 50 343 0.0 0.0 0.00 0.07 0.00 76 1013.4
20190221060007 50 343 0.0 0.0 0.00 0.07 0.00 76 1013.3
20190221055507 50 343 0.0 0.0 0.00 0.07 0.00 76 1013.4
20190221055009 50 343 0.0 0.0 0.00 0.07 0.00 76 1013.4
20190221054507 50 343 0.0 0.0 0.00 0.07 0.00 76 1013.4
20190221054007 50 343 0.0 0.0 0.00 0.07 0.00 76 1013.2
20190221053507 50 343 0.0 0.0 0.00 0.07 0.00 77 1013.3
20190221053008 50 343 0.0 0.0 0.00 0.07 0.00 76 1013.1
20190221052508 50 343 0.0 0.0 0.00 0.07 0.00 77 1013.0
20190221052008 50 343 0.0 0.0 0.00 0.07 0.00 77 1013.0
20190221051508 50 343 0.0 0.0 0.00 0.07 0.00 76 1012.9
20190221051008 50 343 0.0 0.0 0.00 0.07 0.00 77 1012.7
20190221050507 50 343 0.0 0.0 0.00 0.07 0.00 77 1012.8
20190221050008 50 343 0.0 0.0 0.00 0.07 0.00 77 1012.7
20190221045507 50 343 0.0 0.0 0.00 0.07 0.00 77 1012.5
20190221045008 50 343 0.0 0.0 0.00 0.07 0.00 77 1012.5
20190221044507 50 343 0.0 0.0 0.00 0.07 0.00 77 1012.4
20190221044007 50 343 0.0 0.0 0.00 0.07 0.00 77 1012.4
20190221043508 50 343 0.0 0.0 0.00 0.07 0.00 77 1012.5
20190221043008 50 343 0.0 0.0 0.00 0.08 0.00 77 1012.5
20190221042507 50 265 0.0 0.0 0.00 0.08 0.00 77 1012.5
20190221042008 50 265 0.0 0.0 0.00 0.08 0.00 77 1012.5
20190221041507 50 265 0.0 0.0 0.00 0.08 0.00 77 1012.5
20190221041007 50 265 0.0 2.6 0.00 0.08 0.00 77 1012.5
20190221040508 50 265 0.0 2.6 0.00 0.08 0.00 77 1012.5
20190221040007 50 265 0.9 2.6 0.00 0.08 0.00 77 1012.5
20190221035508 50 222 0.0 2.6 0.00 0.08 0.00 77 1012.4
20190221035008 50 222 0.9 2.6 0.00 0.08 0.00 77 1012.4
20190221034507 51 222 1.7 4.3 0.00 0.08 0.00 77 1012.4
20190221034008 51 219 1.7 5.2 0.00 0.08 0.00 78 1012.5
20190221033508 51 231 3.5 5.2 0.00 0.09 0.00 78 1012.3
20190221033007 51 212 0.9 2.6 0.00 0.10 0.00 78 1012.3
20190221032507 51 211 1.7 5.2 0.00 0.10 0.00 78 1012.4
20190221032008 51 211 1.7 5.2 0.00 0.11 0.00 78 1012.4
20190221031508 51 215 2.6 6.1 0.00 0.11 0.00 78 1012.3
20190221031008 51 231 3.5 6.1 0.00 0.12 0.00 78 1012.3
20190221030508 51 228 2.6 5.2 0.00 0.13 0.00 78 1012.3
20190221030008 51 243 2.6 7.0 0.00 0.13 0.00 78 1012.2
20190221025507 51 241 1.7 7.0 0.00 0.13 0.00 78 1012.2
20190221025007 51 231 3.5 6.1 0.00 0.14 0.00 78 1012.1
20190221024508 51 254 0.0 1.7 0.00 0.14 0.00 78 1012.1
20190221024008 51 254 0.9 1.7 0.00 0.15 0.00 78 1012.0
20190221023507 51 254 0.9 2.6 0.00 0.15 0.00 78 1012.0
20190221023008 51 254 0.9 4.3 0.00 0.15 0.00 78 1012.0
20190221022508 51 253 1.7 4.3 0.00 0.16 0.00 78 1012.0
20190221022008 51 253 0.0 1.7 0.00 0.17 0.00 78 1011.9
20190221021507 51 253 0.9 2.6 0.00 0.17 0.00 78 1011.9
20190221021008 51 253 0.9 2.6 0.00 0.17 0.00 78 1011.9
20190221020508 51 253 1.7 2.6 0.00 0.17 0.00 78 1012.0
20190221020007 51 253 1.7 4.3 0.00 0.18 0.00 78 1011.8
20190221015507 51 252 2.6 6.1 0.00 0.18 0.00 78 1011.7
20190221015007 51 249 3.5 7.0 0.00 0.18 0.00 78 1011.6
20190221014508 51 250 3.5 7.0 0.00 0.18 0.00 78 1011.7
20190221014008 51 267 3.5 6.1 0.00 0.18 0.00 78 1011.7
20190221013508 51 271 2.6 5.2 0.00 0.19 0.00 78 1011.5
20190221013007 51 284 2.6 5.2 0.00 0.19 0.00 78 1011.6
20190221012507 51 290 2.6 2.6 0.00 0.19 0.00 78 1011.6
20190221012008 51 266 1.7 7.0 0.00 0.19 0.00 78 1011.6
20190221011508 51 267 0.9 7.0 0.00 0.19 0.00 78 1011.5
20190221011008 51 279 2.6 7.0 0.00 0.19 0.00 78 1011.5
20190221010507 51 247 0.9 2.6 0.00 0.19 0.00 78 1011.4
20190221010007 51 261 1.7 2.6 0.00 0.19 0.00 78 1011.4
20190221005507 51 269 1.7 2.6 0.00 0.19 0.00 78 1011.4
20190221005008 51 264 1.7 2.6 0.00 0.19 0.00 78 1011.3
20190221004507 51 265 1.7 4.3 0.00 0.19 0.00 78 1011.3
20190221004007 51 255 2.6 4.3 0.00 0.20 0.00 78 1011.3
20190221003508 51 244 0.9 2.6 0.00 0.20 0.00 78 1011.3
20190221003007 51 245 0.9 2.6 0.00 0.20 0.00 78 1011.2
20190221002507 51 245 1.7 4.3 0.00 0.21 0.00 78 1011.2
20190221002008 51 244 2.6 5.2 0.00 0.21 0.00 78 1011.2
20190221001507 51 235 2.6 6.1 0.00 0.21 0.00 78 1011.2
20190221001007 51 250 2.6 10.4 0.00 0.22 0.00 78 1011.1
20190221000507 51 248 4.3 10.4 0.00 0.23 0.00 78 1010.9
20190221000008 51 253 3.5 7.0 0.00 0.23 0.00 78 1010.8
20190220235507 51 254 1.7 7.8 0.00 0.24 0.23 78 1010.7
20190220235008 51 249 3.5 10.4 0.00 0.25 0.23 77 1010.7
20190220234508 51 263 4.3 10.4 0.00 0.25 0.23 77 1010.6
20190220234008 51 259 5.2 10.4 0.00 0.25 0.23 77 1010.6
20190220233507 51 262 4.3 7.0 0.00 0.25 0.23 77 1010.5
20190220233008 51 261 2.6 7.0 0.00 0.26 0.23 77 1010.4
20190220232508 51 252 4.3 7.8 0.00 0.26 0.23 77 1010.4
20190220232007 51 271 4.3 7.8 0.00 0.26 0.23 77 1010.4
20190220231507 51 269 5.2 10.4 0.00 0.26 0.23 77 1010.3
20190220231008 51 252 4.3 10.4 0.00 0.26 0.23 78 1010.3
20190220230508 51 249 5.2 10.4 0.00 0.26 0.23 77 1010.3
20190220230007 51 247 4.3 10.4 0.00 0.26 0.23 77 1010.2
20190220225507 51 238 5.2 10.4 0.00 0.26 0.23 77 1010.2
20190220225007 51 248 5.2 10.4 0.00 0.26 0.23 77 1010.1
20190220224507 51 245 4.3 8.7 0.00 0.26 0.23 77 1010.2
20190220224008 51 245 5.2 8.7 0.00 0.26 0.23 77 1010.2
20190220223507 51 249 4.3 8.7 0.00 0.26 0.23 78 1010.1
20190220223008 51 244 5.2 8.7 0.00 0.26 0.23 78 1010.1
20190220222507 51 243 6.1 11.3 0.00 0.26 0.23 77 1010.0
20190220222007 51 242 6.1 11.3 0.00 0.26 0.23 77 1010.0
20190220221507 51 247 6.1 10.4 0.00 0.27 0.23 77 1010.0
20190220221008 51 242 4.3 10.4 0.00 0.27 0.23 77 1010.0
20190220220506 51 247 4.3 11.3 0.00 0.27 0.23 77 1010.0
20190220220008 51 259 5.2 12.2 0.00 0.27 0.23 77 1009.9
20190220215507 51 235 7.8 12.2 0.00 0.27 0.23 77 1009.9
20190220215008 51 248 6.1 11.3 0.00 0.28 0.23 77 1009.9
20190220214507 51 262 3.5 10.4 0.00 0.28 0.23 77 1009.9
20190220214007 51 246 5.2 11.3 0.00 0.28 0.23 77 1009.8
20190220213507 51 252 5.2 11.3 0.00 0.28 0.23 77 1009.7
20190220213007 51 245 5.2 11.3 0.00 0.29 0.23 77 1009.6
20190220212507 50 248 7.0 10.4 0.00 0.29 0.23 76 1009.6
20190220212008 50 259 3.5 7.8 0.00 0.29 0.23 76 1009.6
20190220211507 50 244 2.6 6.1 0.00 0.30 0.23 76 1009.5
20190220211008 50 257 1.7 5.2 0.00 0.30 0.23 76 1009.4
20190220210507 50 258 1.7 6.1 0.00 0.30 0.23 77 1009.3
20190220210008 50 249 1.7 6.1 0.00 0.30 0.23 77 1009.2
20190220205507 50 248 2.6 4.3 0.00 0.30 0.23 77 1009.3
20190220205008 50 253 2.6 4.3 0.00 0.30 0.23 77 1009.3
20190220204506 50 243 2.6 5.2 0.00 0.30 0.23 76 1009.2
20190220204007 50 237 2.6 5.2 0.00 0.30 0.23 76 1009.2
20190220203507 50 254 2.6 6.1 0.00 0.30 0.23 76 1009.2
20190220203007 50 246 2.6 6.1 0.00 0.30 0.23 76 1009.0
20190220202507 50 265 2.6 6.1 0.00 0.31 0.23 76 1009.0
20190220202008 50 260 2.6 7.0 0.00 0.31 0.23 76 1009.0
20190220201507 50 253 4.3 10.4 0.00 0.31 0.23 76 1009.0
20190220201008 50 244 3.5 10.4 0.00 0.31 0.23 76 1008.9
20190220200506 50 235 4.3 7.8 0.01 0.31 0.23 76 1009.0
20190220200007 50 230 3.5 7.8 0.01 0.31 0.23 76 1008.9
20190220195507 50 253 4.3 7.8 0.01 0.31 0.23 76 1008.8
20190220195007 50 221 3.5 7.8 0.01 0.31 0.23 76 1008.7
20190220194507 50 237 4.3 7.8 0.01 0.31 0.23 76 1008.7
20190220194008 50 240 2.6 5.2 0.01 0.31 0.23 76 1008.7
20190220193507 50 233 1.7 5.2 0.01 0.31 0.23 76 1008.7
20190220193007 50 238 2.6 6.1 0.02 0.31 0.23 76 1008.6
20190220192507 50 236 1.7 7.8 0.02 0.31 0.23 76 1008.7
20190220192007 50 240 4.3 7.8 0.02 0.31 0.23 76 1008.6
20190220191507 50 244 1.7 8.7 0.02 0.31 0.23 76 1008.6
20190220191008 50 235 3.5 10.4 0.02 0.31 0.23 76 1008.6
20190220190507 50 230 5.2 10.4 0.02 0.30 0.22 76 1008.5
20190220190008 50 236 5.2 10.4 0.02 0.31 0.22 76 1008.4
20190220185507 50 239 6.1 10.4 0.02 0.31 0.22 76 1008.5
20190220185008 50 245 1.7 6.1 0.02 0.31 0.22 76 1008.5
20190220184507 50 258 1.7 10.4 0.02 0.31 0.22 76 1008.4
20190220184007 50 235 4.3 10.4 0.02 0.31 0.22 76 1008.3
20190220183507 50 236 4.3 11.3 0.02 0.31 0.22 76 1008.2
20190220183007 50 231 5.2 11.3 0.01 0.30 0.21 76 1008.3
20190220182507 50 257 2.6 6.1 0.01 0.30 0.21 76 1008.3
20190220182008 50 266 1.7 7.0 0.00 0.29 0.21 76 1008.2
20190220181507 50 255 4.3 7.0 0.01 0.29 0.21 76 1008.0
20190220181007 50 241 2.6 5.2 0.01 0.29 0.21 76 1007.9
20190220180507 50 238 2.6 4.3 0.01 0.29 0.21 76 1007.8
20190220180008 50 261 1.7 2.6 0.01 0.29 0.21 76 1007.7
20190220175507 50 284 1.7 2.6 0.01 0.29 0.21 76 1007.6
20190220175008 50 238 1.7 2.6 0.01 0.29 0.21 76 1007.5
20190220174507 50 238 0.9 5.2 0.01 0.29 0.21 76 1007.4
20190220174007 50 262 1.7 5.2 0.01 0.29 0.21 76 1007.4
20190220173506 50 268 1.7 5.2 0.01 0.29 0.21 76 1007.4